#timestamp,LO_Frequency,Hit 
1501272015.2,286047017.5,N
1501272035.0,286047019.3,N
1501272036.0,286047019.3,N
1501272055.8,286047019.6,N
1501272075.6,286047014.7,N
1501272095.4,286047013.5,N
1501272115.3,286047015.0,N
1501272135.1,286047017.9,N
1501272155.8,286047016.0,N
1501272175.7,286047016.8,N
1501272195.5,286047016.1,N
1501272215.3,286047017.0,N
1501272235.2,286047016.3,N
1501272255.9,286047021.7,N
1501272275.7,286047023.4,N
1501272295.6,286047019.0,N
1501272315.4,286047021.2,N
1501272335.2,286047021.8,N
1501272355.0,286047023.6,N
1501272355.9,286047023.6,N
1501272375.8,286047024.8,N
1501272395.6,286047024.5,N
1501272415.4,286047026.4,N
1501272435.3,286047026.3,N
1501272455.1,286047024.2,N
1501272456.0,286047024.2,N
1501272475.8,286047027.7,N
1501272495.7,286047027.5,N
1501272515.5,286047029.4,N
1501272535.3,286047027.5,N
1501272555.2,286047027.5,N
1501272575.9,286047029.9,N
1501272595.7,286047029.3,N
1501272615.5,286047028.5,N
1501272635.4,286047029.1,N
1501272655.2,286047029.7,N
1501272675.0,286047028.7,N
1501272675.9,286047028.7,N
1501272695.8,286047027.2,N
1501272715.6,286047030.9,N
1501272735.4,286047034.8,N
1501272755.3,286047030.1,N
1501272775.1,286047031.6,N
1501272795.8,286047029.7,N
1501272815.7,286047030.7,N
1501272835.5,286047030.3,N
1501272855.3,286047030.9,N
1501272875.2,286047032.3,N
1501272895.9,286047030.5,N
1501272915.7,286047034.5,N
1501272935.6,286047034.0,N
1501272955.4,286047034.2,N
1501272975.2,286047031.8,N
1501272995.0,286047032.7,N
1501272995.9,286047032.7,N
1501273015.8,286047030.8,N
1501273035.6,286047031.5,N
1501273055.4,286047028.8,N
1501273075.3,286047031.3,N
1501273095.1,286047029.2,N
1501273115.8,286047029.5,N
1501273135.7,286047028.1,N
1501273155.5,286047027.1,N
1501273175.3,286047028.6,N
1501273195.2,286047028.4,N
1501273215.9,286047028.1,N
1501273235.7,286047025.3,N
1501273255.6,286047024.4,N
1501273275.4,286047024.9,N
1501273295.2,286047026.7,N
1501273315.0,286047027.9,N
1501273315.9,286047027.9,N
1501273335.8,286047028.6,N
1501273355.8,286047027.0,N
1501273375.6,286047029.0,N
1501273395.5,286047032.6,N
1501273415.3,286047031.4,N
1501273435.1,286047035.0,N
1501273455.9,286047034.1,N
1501273475.7,286047032.6,N
1501273495.5,286047032.9,N
1501273515.4,286047032.1,N
1501273535.2,286047034.8,N
1501273555.0,286047031.9,N
1501273555.9,286047031.9,N
1501273575.8,286047030.1,N
1501273595.6,286047031.5,N
1501273615.4,286047029.4,N
1501273635.3,286047027.5,N
1501273655.1,286047027.3,N
1501273656.0,286047027.3,N
1501273675.8,286047027.5,N
1501273695.7,286047028.2,N
1501273715.5,286047027.2,N
1501273735.3,286047025.8,N
1501273755.1,286047026.5,N
1501273775.9,286047026.0,N
1501273795.7,286047024.2,N
1501273815.5,286047026.7,N
1501273835.4,286047022.4,N
1501273855.2,286047024.8,N
1501273875.0,286047020.6,N
1501273875.9,286047020.6,N
1501273895.8,286047021.3,N
1501273915.6,286047021.9,N
1501273935.4,286047019.3,N
1501273955.3,286047019.5,N
1501273975.1,286047020.1,N
1501273976.0,286047020.1,N
1501273995.8,286047018.2,N
1501274015.7,286047019.2,N
1501274035.5,286047018.6,N
1501274055.3,286047017.5,N
1501274075.1,286047017.3,N
1501274095.9,286047020.3,N
1501274115.7,286047013.3,N
1501274135.5,286047013.0,N
1501274155.4,286047016.5,N
1501274175.2,286047018.5,N
1501274195.0,286047020.3,N
1501274195.9,286047020.3,N
1501274215.8,286047019.1,N
1501274235.6,286047020.3,N
1501274255.4,286047017.8,N
1501274275.3,286047019.7,N
1501274295.1,286047020.1,N
1501274296.0,286047020.1,N
1501274315.8,286047021.7,N
1501274335.6,286047020.5,N
1501274355.5,286047023.0,N
1501274375.3,286047024.7,N
1501274395.1,286047024.0,N
1501274415.9,286047022.9,N
1501274435.7,286047022.4,N
1501274455.5,286047020.9,N
1501274475.4,286047022.3,N
1501274495.2,286047025.1,N
1501274515.0,286047025.9,N
1501274515.9,286047025.9,N
1501274535.8,286047027.1,N
1501274555.6,286047028.0,N
1501274575.4,286047028.3,N
1501274595.3,286047026.6,N
1501274615.1,286047024.6,N
1501274616.0,286047024.6,N
1501274635.8,286047024.0,N
1501274655.7,286047026.2,N
1501274675.5,286047023.2,N
1501274695.3,286047025.3,N
1501274715.1,286047025.0,N
1501274735.9,286047026.0,N
1501274755.7,286047026.2,N
1501274775.5,286047025.5,N
1501274795.4,286047024.5,N
1501274815.2,286047028.0,N
1501274835.0,286047026.5,N
1501274835.9,286047026.5,N
1501274855.8,286047023.7,N
1501274875.6,286047026.2,N
1501274895.4,286047022.5,N
1501274915.3,286047022.4,N
1501274935.1,286047023.3,N
1501274936.0,286047023.3,N
1501274955.8,286047023.6,N
1501274975.7,286047025.1,N
1501274995.5,286047024.4,N
1501275015.3,286047024.4,N
1501275035.2,286047022.9,N
1501275055.9,286047026.8,N
1501275075.7,286047027.1,N
1501275095.5,286047026.5,N
1501275115.4,286047025.9,N
1501275135.2,286047028.3,N
1501275155.0,286047026.7,N
1501275155.9,286047026.7,N
1501275175.8,286047024.3,N
1501275195.6,286047024.6,N
1501275215.4,286047025.4,N
1501275235.3,286047026.5,N
1501275255.1,286047023.7,N
1501275256.0,286047023.7,N
1501275275.8,286047022.8,N
1501275295.7,286047022.4,N
1501275315.5,286047026.2,N
1501275335.3,286047025.9,N
1501275355.1,286047024.6,N
1501275375.9,286047024.3,N
1501275395.7,286047026.3,N
1501275415.5,286047026.2,N
1501275435.4,286047027.6,N
1501275455.2,286047027.6,N
1501275475.0,286047028.0,N
1501275475.9,286047028.0,N
1501275495.8,286047032.9,N
1501275515.6,286047033.0,N
1501275535.4,286047030.6,N
1501275555.3,286047028.8,N
1501275575.1,286047029.2,N
1501275576.0,286047029.2,N
1501275595.8,286047031.2,N
